Weather History for Ketchikan, AK

Change the Weather History Date:

Thursday, November 7, 2013

  Actual Average Record
Temperature  
Mean Temperature 41 °F -  
Max Temperature 45 °F 45 °F 59 °F (1965)
Min Temperature 37 °F 34 °F 15 °F (1973)
Degree Days  
Heating Degree Days 24    
Moisture  
Dew Point 39 °F    
Average Humidity 92    
Maximum Humidity 100    
Minimum Humidity 82    
Precipitation  
Precipitation 0.00 in - - ()
Sea Level Pressure  
Sea Level Pressure 29.83 in    
Wind  
Wind Speed 3 mph (West)    
Max Wind Speed 12 mph    
Max Gust Speed -    
Visibility 10 miles    
Events      
Averages and records for this station are not official NWS values.
T = Trace of Precipitation, MM = Missing Value Source: NWS Daily Summary

Daily Weather History Graph

Daily Weather History Graph

Search for Another Location

Airport:

Trip Planner

Search our weather history database for the weather conditions in past years. The results will help you decide how hot, cold, wet, or windy it might be!

Date:

Astronomy

Nov. 07, 2013 Rise Set
Actual Time 7:05 AM AKST 3:55 PM AKST
Civil Twilight 6:24 AM AKST 4:35 PM AKST
Nautical Twilight 5:40 AM AKST 5:19 PM AKST
Astronomical Twilight 4:58 AM AKST 6:01 PM AKST
Moon 11:28 AM AKST (11/7) 8:08 PM AKST (11/7)
Length of Visible Light 10h 10m
Length of Day
8h 50m
Waxing Crescent, 24% of the Moon is Illuminated
Nov 7
Waxing Crescent
Nov 9
First Quarter
Nov 17
Full
Nov 25
Last Quarter
Dec 2
New

Hourly Weather History & Observations

Time (AKST) Temp. Windchill Dew Point Humidity Pressure Visibility Wind Dir Wind Speed Gust Speed Precip Events Conditions
12:53 AM 43.0 °F - 41.0 °F 93% 29.95 in 10.0 mi Calm Calm - N/A   Overcast
1:53 AM 42.1 °F - 41.0 °F 96% 29.93 in 10.0 mi Calm Calm - N/A   Overcast
2:26 AM 42.8 °F - 39.2 °F 87% 29.92 in 10.0 mi Calm Calm - N/A   Overcast
3:53 AM 37.9 °F - 37.0 °F 97% 29.90 in 10.0 mi Calm Calm - N/A   Scattered Clouds
4:53 AM 39.0 °F 35.7 °F 37.9 °F 96% 29.87 in 10.0 mi WNW 4.6 mph - N/A   Clear
5:53 AM 37.9 °F 32.7 °F 37.0 °F 97% 29.86 in 10.0 mi NW 6.9 mph - N/A   Clear
6:02 AM 37.4 °F 32.1 °F 37.4 °F 100% 29.85 in 10.0 mi WNW 6.9 mph - N/A   Clear
6:53 AM 37.0 °F 33.3 °F 37.0 °F 100% 29.84 in 10.0 mi WNW 4.6 mph - N/A   Scattered Clouds
7:53 AM 37.9 °F 34.4 °F 37.0 °F 97% 29.82 in 10.0 mi NW 4.6 mph - N/A   Scattered Clouds
8:53 AM 41.0 °F 36.4 °F 39.0 °F 93% 29.81 in 10.0 mi NW 6.9 mph - N/A   Scattered Clouds
9:53 AM 43.0 °F 37.2 °F 39.9 °F 89% 29.80 in 10.0 mi NNW 10.4 mph - N/A   Scattered Clouds
10:53 AM 44.1 °F 38.1 °F 41.0 °F 89% 29.81 in 10.0 mi NNW 11.5 mph - N/A   Scattered Clouds
11:53 AM 45.0 °F 40.1 °F 39.9 °F 82% 29.79 in 10.0 mi NNW 9.2 mph - N/A   Scattered Clouds
12:53 PM 45.0 °F 40.6 °F 39.9 °F 82% 29.78 in 10.0 mi NNW 8.1 mph - N/A   Scattered Clouds
1:53 PM 43.0 °F 40.3 °F 39.0 °F 86% 29.78 in 10.0 mi West 4.6 mph - N/A   Scattered Clouds
2:53 PM 42.1 °F 39.2 °F 39.0 °F 89% 29.78 in 10.0 mi WNW 4.6 mph - N/A   Mostly Cloudy
3:53 PM 39.9 °F 36.7 °F 37.9 °F 93% 29.78 in 10.0 mi WNW 4.6 mph - N/A   Mostly Cloudy
4:53 PM 39.9 °F 37.8 °F 37.9 °F 93% 29.79 in 10.0 mi West 3.5 mph - N/A   Overcast
5:53 PM 39.0 °F - 37.0 °F 93% 29.79 in 10.0 mi Calm Calm - N/A   Overcast
6:53 PM 39.9 °F - 37.0 °F 89% 29.79 in 10.0 mi Calm Calm - N/A   Overcast
7:53 PM 41.0 °F 39.0 °F 39.0 °F 93% 29.80 in 10.0 mi South 3.5 mph - N/A   Overcast
8:53 PM 41.0 °F - 39.0 °F 93% 29.80 in 10.0 mi Calm Calm - N/A   Overcast
9:23 PM 42.8 °F 41.1 °F 39.2 °F 87% 29.81 in 10.0 mi SE 3.5 mph - N/A   Overcast
9:48 PM 41.0 °F 39.0 °F 39.2 °F 93% 29.81 in 10.0 mi SSE 3.5 mph - N/A   Overcast
9:53 PM 41.0 °F 39.0 °F 39.0 °F 93% 29.82 in 10.0 mi SSE 3.5 mph - N/A   Overcast
10:14 PM 41.0 °F 39.0 °F 39.2 °F 93% 29.81 in 10.0 mi South 3.5 mph - N/A   Overcast
10:21 PM 41.0 °F - 39.2 °F 93% 29.81 in 10.0 mi Calm Calm - N/A   Overcast
10:53 PM 42.1 °F 40.2 °F 39.0 °F 89% 29.82 in 10.0 mi South 3.5 mph - N/A   Overcast
11:01 PM 42.8 °F 41.1 °F 39.2 °F 87% 29.82 in 10.0 mi South 3.5 mph - N/A   Overcast
11:39 PM 42.8 °F 41.1 °F 39.2 °F 87% 29.82 in 10.0 mi South 3.5 mph - N/A   Overcast
11:53 PM 42.1 °F - 39.9 °F 92% 29.83 in 10.0 mi Calm Calm - N/A   Overcast